<?xml version="1.0" encoding="UTF-8" standalone="no" ?>
<gpx xmlns="http://www.topografix.com/GPX/1/1" xmlns:xsi="http://www.w3.org/2001/XMLSchema-instance" xsi:schemaLocation="http://www.topografix.com/GPX/1/1 http://www.topografix.com/GPX/1/1/gpx.xsd" version="1.1" creator="VisuGPX - https://www.visugpx.com">
  <metadata>
    <name>Raccourci Montcuq</name>
  </metadata>
  <wpt lat="44.41706" lon="1.15834">
    <ele>172.1</ele>
    <name><![CDATA[Domaine des Terres Blanches]]></name>
    <type><![CDATA[hotel]]></type>
  </wpt>
  <trk>
    <name><![CDATA[Raccourci Montcuq_1]]></name>
    <extensions>
      <line xmlns="http://www.topografix.com/GPX/gpx_style/0/2">
        <color>0000FF</color>
        <width>4</width>
      </line>
    </extensions>
    <trkseg>
      <trkpt lat="44.41632" lon="1.15782">
        <ele>176</ele>
        <time>2021-02-09T08:26:07Z</time>
      </trkpt>
      <trkpt lat="44.41645" lon="1.15778">
        <ele>175.5</ele>
        <time>2021-02-09T08:26:07Z</time>
      </trkpt>
      <trkpt lat="44.41652" lon="1.1576">
        <ele>175.6</ele>
        <time>2021-02-09T08:26:07Z</time>
      </trkpt>
      <trkpt lat="44.41666" lon="1.15746">
        <ele>175.1</ele>
        <time>2021-02-09T08:26:07Z</time>
      </trkpt>
      <trkpt lat="44.41668" lon="1.15736">
        <ele>174.9</ele>
        <time>2021-02-09T08:26:07Z</time>
      </trkpt>
      <trkpt lat="44.41665" lon="1.15727">
        <ele>160</ele>
        <time>2021-02-09T12:20:36Z</time>
      </trkpt>
      <trkpt lat="44.41648" lon="1.15654">
        <ele>178</ele>
        <time>2021-02-09T08:26:07Z</time>
      </trkpt>
      <trkpt lat="44.41643" lon="1.15645">
        <ele>160</ele>
        <time>2021-02-09T12:20:36Z</time>
      </trkpt>
      <trkpt lat="44.41636" lon="1.15639">
        <ele>180.1</ele>
        <time>2021-02-09T08:26:07Z</time>
      </trkpt>
      <trkpt lat="44.41636" lon="1.15629">
        <ele>180.3</ele>
        <time>2021-02-09T08:26:07Z</time>
      </trkpt>
      <trkpt lat="44.41627" lon="1.1558">
        <ele>182.5</ele>
        <time>2021-02-09T08:26:07Z</time>
      </trkpt>
      <trkpt lat="44.41624" lon="1.15571">
        <ele>183.1</ele>
        <time>2021-02-09T08:26:07Z</time>
      </trkpt>
      <trkpt lat="44.41616" lon="1.15533">
        <ele>184.2</ele>
        <time>2021-02-09T08:26:07Z</time>
      </trkpt>
      <trkpt lat="44.41612" lon="1.15524">
        <ele>160</ele>
        <time>2021-02-09T12:20:36Z</time>
      </trkpt>
      <trkpt lat="44.41605" lon="1.15483">
        <ele>185.9</ele>
        <time>2021-02-09T08:26:07Z</time>
      </trkpt>
      <trkpt lat="44.41589" lon="1.1543">
        <ele>189</ele>
        <time>2021-02-09T08:26:07Z</time>
      </trkpt>
      <trkpt lat="44.41587" lon="1.15421">
        <ele>160</ele>
        <time>2021-02-09T12:20:36Z</time>
      </trkpt>
      <trkpt lat="44.41628" lon="1.15365">
        <ele>181.2</ele>
        <time>2021-02-09T08:26:07Z</time>
      </trkpt>
      <trkpt lat="44.41635" lon="1.15358">
        <ele>160</ele>
        <time>2021-02-09T12:20:36Z</time>
      </trkpt>
      <trkpt lat="44.41727" lon="1.15299">
        <ele>170.9</ele>
        <time>2021-02-09T08:26:07Z</time>
      </trkpt>
      <trkpt lat="44.4174" lon="1.15295">
        <ele>169.5</ele>
        <time>2021-02-09T08:26:07Z</time>
      </trkpt>
      <trkpt lat="44.41755" lon="1.15282">
        <ele>168</ele>
        <time>2021-02-09T08:26:07Z</time>
      </trkpt>
      <trkpt lat="44.41761" lon="1.15279">
        <ele>160</ele>
        <time>2021-02-09T12:20:36Z</time>
      </trkpt>
      <trkpt lat="44.4179" lon="1.15228">
        <ele>164.2</ele>
        <time>2021-02-09T08:26:07Z</time>
      </trkpt>
      <trkpt lat="44.4181" lon="1.15179">
        <ele>162.6</ele>
        <time>2021-02-09T08:26:07Z</time>
      </trkpt>
      <trkpt lat="44.41817" lon="1.15172">
        <ele>160</ele>
        <time>2021-02-09T12:20:36Z</time>
      </trkpt>
      <trkpt lat="44.41853" lon="1.15094">
        <ele>159</ele>
        <time>2021-02-09T08:26:07Z</time>
      </trkpt>
      <trkpt lat="44.41866" lon="1.15077">
        <ele>157.9</ele>
        <time>2021-02-09T08:26:07Z</time>
      </trkpt>
      <trkpt lat="44.41873" lon="1.15073">
        <ele>160</ele>
        <time>2021-02-09T12:20:36Z</time>
      </trkpt>
      <trkpt lat="44.41936" lon="1.15011">
        <ele>154.1</ele>
        <time>2021-02-09T08:26:07Z</time>
      </trkpt>
      <trkpt lat="44.41931" lon="1.15041">
        <ele>154.2</ele>
        <time>2021-02-09T08:26:07Z</time>
      </trkpt>
      <trkpt lat="44.41932" lon="1.15059">
        <ele>154.2</ele>
        <time>2021-02-09T08:26:07Z</time>
      </trkpt>
      <trkpt lat="44.41934" lon="1.15069">
        <ele>160</ele>
        <time>2021-02-09T12:20:36Z</time>
      </trkpt>
      <trkpt lat="44.41978" lon="1.1514">
        <ele>151.8</ele>
        <time>2021-02-09T08:26:07Z</time>
      </trkpt>
      <trkpt lat="44.41985" lon="1.15189">
        <ele>151.7</ele>
        <time>2021-02-09T08:26:07Z</time>
      </trkpt>
      <trkpt lat="44.41987" lon="1.15207">
        <ele>151.6</ele>
        <time>2021-02-09T08:26:07Z</time>
      </trkpt>
      <trkpt lat="44.41988" lon="1.15217">
        <ele>160</ele>
        <time>2021-02-09T12:20:36Z</time>
      </trkpt>
      <trkpt lat="44.41993" lon="1.15237">
        <ele>151.3</ele>
        <time>2021-02-09T08:26:07Z</time>
      </trkpt>
      <trkpt lat="44.41994" lon="1.15257">
        <ele>151.3</ele>
        <time>2021-02-09T08:26:07Z</time>
      </trkpt>
      <trkpt lat="44.41993" lon="1.15276">
        <ele>151.6</ele>
        <time>2021-02-09T08:26:07Z</time>
      </trkpt>
      <trkpt lat="44.42008" lon="1.15323">
        <ele>152.3</ele>
        <time>2021-02-09T08:26:07Z</time>
      </trkpt>
      <trkpt lat="44.42008" lon="1.15342">
        <ele>152.6</ele>
        <time>2021-02-09T08:26:07Z</time>
      </trkpt>
      <trkpt lat="44.42006" lon="1.15351">
        <ele>160</ele>
        <time>2021-02-09T12:20:36Z</time>
      </trkpt>
      <trkpt lat="44.41994" lon="1.15399">
        <ele>153.7</ele>
        <time>2021-02-09T08:26:07Z</time>
      </trkpt>
      <trkpt lat="44.41963" lon="1.15473">
        <ele>154.1</ele>
        <time>2021-02-09T08:26:07Z</time>
      </trkpt>
      <trkpt lat="44.41958" lon="1.15482">
        <ele>160</ele>
        <time>2021-02-09T12:20:36Z</time>
      </trkpt>
      <trkpt lat="44.41948" lon="1.15506">
        <ele>154.1</ele>
        <time>2021-02-09T08:26:07Z</time>
      </trkpt>
      <trkpt lat="44.41944" lon="1.15544">
        <ele>154.7</ele>
        <time>2021-02-09T08:26:07Z</time>
      </trkpt>
      <trkpt lat="44.41948" lon="1.15553">
        <ele>154.9</ele>
        <time>2021-02-09T08:26:07Z</time>
      </trkpt>
      <trkpt lat="44.41955" lon="1.15559">
        <ele>155</ele>
        <time>2021-02-09T08:26:07Z</time>
      </trkpt>
      <trkpt lat="44.41961" lon="1.15567">
        <ele>160</ele>
        <time>2021-02-09T12:20:36Z</time>
      </trkpt>
      <trkpt lat="44.41952" lon="1.15629">
        <ele>160</ele>
        <time>2021-02-09T12:20:34Z</time>
      </trkpt>
      <trkpt lat="44.41954" lon="1.15682">
        <ele>157</ele>
        <time>2021-02-09T12:20:25Z</time>
      </trkpt>
      <trkpt lat="44.41941" lon="1.15756">
        <ele>157</ele>
        <time>2021-02-09T12:20:23Z</time>
      </trkpt>
      <trkpt lat="44.41933" lon="1.15811">
        <ele>154</ele>
        <time>2021-02-09T12:20:10Z</time>
      </trkpt>
      <trkpt lat="44.41933" lon="1.15884">
        <ele>154</ele>
        <time>2021-02-09T12:20:07Z</time>
      </trkpt>
      <trkpt lat="44.4193" lon="1.1589">
        <ele>158</ele>
        <time>2021-02-09T12:19:58Z</time>
      </trkpt>
      <trkpt lat="44.41931" lon="1.15892">
        <ele>158</ele>
        <time>2021-02-09T12:19:56Z</time>
      </trkpt>
      <trkpt lat="44.4193" lon="1.15901">
        <ele>159</ele>
        <time>2021-02-09T12:19:44Z</time>
      </trkpt>
      <trkpt lat="44.41929" lon="1.15904">
        <ele>160</ele>
        <time>2021-02-09T12:19:41Z</time>
      </trkpt>
      <trkpt lat="44.41929" lon="1.15916">
        <ele>160</ele>
        <time>2021-02-09T12:19:35Z</time>
      </trkpt>
      <trkpt lat="44.41928" lon="1.15919">
        <ele>160</ele>
        <time>2021-02-09T12:18:52Z</time>
      </trkpt>
      <trkpt lat="44.41927" lon="1.15934">
        <ele>160</ele>
        <time>2021-02-09T12:18:45Z</time>
      </trkpt>
      <trkpt lat="44.41926" lon="1.15941">
        <ele>161</ele>
        <time>2021-02-09T12:18:15Z</time>
      </trkpt>
      <trkpt lat="44.41925" lon="1.15946">
        <ele>161</ele>
        <time>2021-02-09T12:18:13Z</time>
      </trkpt>
      <trkpt lat="44.41926" lon="1.15949">
        <ele>161</ele>
        <time>2021-02-09T12:18:12Z</time>
      </trkpt>
      <trkpt lat="44.41927" lon="1.15953">
        <ele>161</ele>
        <time>2021-02-09T12:18:11Z</time>
      </trkpt>
      <trkpt lat="44.41933" lon="1.1596">
        <ele>161</ele>
        <time>2021-02-09T12:18:09Z</time>
      </trkpt>
      <trkpt lat="44.41959" lon="1.15975">
        <ele>161</ele>
        <time>2021-02-09T12:18:02Z</time>
      </trkpt>
      <trkpt lat="44.41965" lon="1.15976">
        <ele>161</ele>
        <time>2021-02-09T12:17:59Z</time>
      </trkpt>
      <trkpt lat="44.41968" lon="1.15977">
        <ele>160</ele>
        <time>2021-02-09T12:17:57Z</time>
      </trkpt>
      <trkpt lat="44.4197" lon="1.15979">
        <ele>159</ele>
        <time>2021-02-09T12:17:55Z</time>
      </trkpt>
      <trkpt lat="44.41972" lon="1.15983">
        <ele>158</ele>
        <time>2021-02-09T12:16:33Z</time>
      </trkpt>
      <trkpt lat="44.41973" lon="1.15986">
        <ele>157</ele>
        <time>2021-02-09T12:16:10Z</time>
      </trkpt>
      <trkpt lat="44.41976" lon="1.15991">
        <ele>156</ele>
        <time>2021-02-09T12:16:06Z</time>
      </trkpt>
      <trkpt lat="44.4198" lon="1.16011">
        <ele>154</ele>
        <time>2021-02-09T12:14:59Z</time>
      </trkpt>
      <trkpt lat="44.4198" lon="1.16025">
        <ele>153</ele>
        <time>2021-02-09T12:14:52Z</time>
      </trkpt>
      <trkpt lat="44.41974" lon="1.16048">
        <ele>154</ele>
        <time>2021-02-09T12:14:40Z</time>
      </trkpt>
      <trkpt lat="44.41971" lon="1.16055">
        <ele>155</ele>
        <time>2021-02-09T12:14:38Z</time>
      </trkpt>
      <trkpt lat="44.41955" lon="1.16086">
        <ele>161</ele>
        <time>2021-02-09T12:14:28Z</time>
      </trkpt>
      <trkpt lat="44.41951" lon="1.16098">
        <ele>163</ele>
        <time>2021-02-09T12:14:24Z</time>
      </trkpt>
      <trkpt lat="44.41939" lon="1.16126">
        <ele>163</ele>
        <time>2021-02-09T12:14:15Z</time>
      </trkpt>
      <trkpt lat="44.41937" lon="1.1613">
        <ele>163</ele>
        <time>2021-02-09T12:14:13Z</time>
      </trkpt>
      <trkpt lat="44.41933" lon="1.16142">
        <ele>163</ele>
        <time>2021-02-09T12:14:10Z</time>
      </trkpt>
      <trkpt lat="44.41922" lon="1.16169">
        <ele>164</ele>
        <time>2021-02-09T12:14:02Z</time>
      </trkpt>
      <trkpt lat="44.41918" lon="1.16179">
        <ele>162</ele>
        <time>2021-02-09T12:13:55Z</time>
      </trkpt>
      <trkpt lat="44.41918" lon="1.16182">
        <ele>163</ele>
        <time>2021-02-09T12:13:53Z</time>
      </trkpt>
      <trkpt lat="44.41916" lon="1.16186">
        <ele>163</ele>
        <time>2021-02-09T12:13:51Z</time>
      </trkpt>
      <trkpt lat="44.41908" lon="1.16195">
        <ele>164</ele>
        <time>2021-02-09T12:13:45Z</time>
      </trkpt>
      <trkpt lat="44.41907" lon="1.16199">
        <ele>165</ele>
        <time>2021-02-09T12:13:42Z</time>
      </trkpt>
      <trkpt lat="44.41899" lon="1.16205">
        <ele>164</ele>
        <time>2021-02-09T12:13:33Z</time>
      </trkpt>
      <trkpt lat="44.41891" lon="1.16215">
        <ele>165</ele>
        <time>2021-02-09T12:12:48Z</time>
      </trkpt>
      <trkpt lat="44.41872" lon="1.16245">
        <ele>164</ele>
        <time>2021-02-09T12:12:21Z</time>
      </trkpt>
      <trkpt lat="44.41861" lon="1.1627">
        <ele>161</ele>
        <time>2021-02-09T12:12:01Z</time>
      </trkpt>
      <trkpt lat="44.41856" lon="1.16279">
        <ele>161</ele>
        <time>2021-02-09T12:11:56Z</time>
      </trkpt>
      <trkpt lat="44.41852" lon="1.1629">
        <ele>162</ele>
        <time>2021-02-09T12:11:50Z</time>
      </trkpt>
      <trkpt lat="44.41812" lon="1.16375">
        <ele>166</ele>
        <time>2021-02-09T12:11:30Z</time>
      </trkpt>
      <trkpt lat="44.41804" lon="1.16413">
        <ele>164</ele>
        <time>2021-02-09T12:11:20Z</time>
      </trkpt>
      <trkpt lat="44.41794" lon="1.16476">
        <ele>165</ele>
        <time>2021-02-09T12:10:49Z</time>
      </trkpt>
      <trkpt lat="44.41792" lon="1.16482">
        <ele>165</ele>
        <time>2021-02-09T12:10:39Z</time>
      </trkpt>
      <trkpt lat="44.41791" lon="1.16486">
        <ele>165</ele>
        <time>2021-02-09T12:10:32Z</time>
      </trkpt>
      <trkpt lat="44.41789" lon="1.16523">
        <ele>167</ele>
        <time>2021-02-09T12:10:23Z</time>
      </trkpt>
      <trkpt lat="44.41796" lon="1.16587">
        <ele>171</ele>
        <time>2021-02-09T12:10:09Z</time>
      </trkpt>
      <trkpt lat="44.41796" lon="1.16622">
        <ele>164</ele>
        <time>2021-02-09T12:09:52Z</time>
      </trkpt>
      <trkpt lat="44.41794" lon="1.16627">
        <ele>164</ele>
        <time>2021-02-09T12:09:50Z</time>
      </trkpt>
      <trkpt lat="44.41789" lon="1.16637">
        <ele>162</ele>
        <time>2021-02-09T12:09:44Z</time>
      </trkpt>
      <trkpt lat="44.41783" lon="1.16643">
        <ele>161</ele>
        <time>2021-02-09T12:09:37Z</time>
      </trkpt>
      <trkpt lat="44.41783" lon="1.16647">
        <ele>161</ele>
        <time>2021-02-09T12:09:34Z</time>
      </trkpt>
      <trkpt lat="44.41783" lon="1.16652">
        <ele>161</ele>
        <time>2021-02-09T12:09:31Z</time>
      </trkpt>
      <trkpt lat="44.4179" lon="1.16678">
        <ele>164</ele>
        <time>2021-02-09T12:09:15Z</time>
      </trkpt>
      <trkpt lat="44.41792" lon="1.16684">
        <ele>165</ele>
        <time>2021-02-09T12:09:12Z</time>
      </trkpt>
      <trkpt lat="44.41798" lon="1.16696">
        <ele>168</ele>
        <time>2021-02-09T12:09:03Z</time>
      </trkpt>
      <trkpt lat="44.41806" lon="1.16709">
        <ele>170</ele>
        <time>2021-02-09T12:08:54Z</time>
      </trkpt>
      <trkpt lat="44.41805" lon="1.16714">
        <ele>170</ele>
        <time>2021-02-09T12:08:50Z</time>
      </trkpt>
      <trkpt lat="44.41803" lon="1.1672">
        <ele>169</ele>
        <time>2021-02-09T12:08:38Z</time>
      </trkpt>
      <trkpt lat="44.41802" lon="1.16723">
        <ele>169</ele>
        <time>2021-02-09T12:08:35Z</time>
      </trkpt>
      <trkpt lat="44.41801" lon="1.16726">
        <ele>170</ele>
        <time>2021-02-09T12:08:33Z</time>
      </trkpt>
      <trkpt lat="44.41792" lon="1.16732">
        <ele>170</ele>
        <time>2021-02-09T12:08:25Z</time>
      </trkpt>
      <trkpt lat="44.41774" lon="1.16736">
        <ele>171</ele>
        <time>2021-02-09T12:08:11Z</time>
      </trkpt>
      <trkpt lat="44.4173" lon="1.1675">
        <ele>174</ele>
        <time>2021-02-09T12:07:39Z</time>
      </trkpt>
      <trkpt lat="44.41684" lon="1.16761">
        <ele>173</ele>
        <time>2021-02-09T12:07:07Z</time>
      </trkpt>
      <trkpt lat="44.41678" lon="1.16763">
        <ele>174</ele>
        <time>2021-02-09T12:07:04Z</time>
      </trkpt>
      <trkpt lat="44.41685" lon="1.16791">
        <ele>178</ele>
        <time>2021-02-09T12:05:02Z</time>
      </trkpt>
      <trkpt lat="44.41695" lon="1.16852">
        <ele>178</ele>
        <time>2021-02-09T12:04:48Z</time>
      </trkpt>
      <trkpt lat="44.41706" lon="1.16934">
        <ele>180</ele>
        <time>2021-02-09T12:04:29Z</time>
      </trkpt>
      <trkpt lat="44.41712" lon="1.17001">
        <ele>177</ele>
        <time>2021-02-09T12:04:15Z</time>
      </trkpt>
      <trkpt lat="44.41709" lon="1.17012">
        <ele>178</ele>
        <time>2021-02-09T12:04:13Z</time>
      </trkpt>
      <trkpt lat="44.41703" lon="1.17025">
        <ele>179</ele>
        <time>2021-02-09T12:04:10Z</time>
      </trkpt>
      <trkpt lat="44.41649" lon="1.1705">
        <ele>183</ele>
        <time>2021-02-09T12:03:39Z</time>
      </trkpt>
      <trkpt lat="44.4159" lon="1.17098">
        <ele>185</ele>
        <time>2021-02-09T12:03:16Z</time>
      </trkpt>
      <trkpt lat="44.41563" lon="1.17118">
        <ele>183</ele>
        <time>2021-02-09T12:03:06Z</time>
      </trkpt>
      <trkpt lat="44.41543" lon="1.1714">
        <ele>182</ele>
        <time>2021-02-09T12:02:56Z</time>
      </trkpt>
      <trkpt lat="44.41544" lon="1.17147">
        <ele>182</ele>
        <time>2021-02-09T12:02:53Z</time>
      </trkpt>
      <trkpt lat="44.41547" lon="1.17153">
        <ele>182</ele>
        <time>2021-02-09T12:02:51Z</time>
      </trkpt>
      <trkpt lat="44.41566" lon="1.17183">
        <ele>184</ele>
        <time>2021-02-09T12:02:41Z</time>
      </trkpt>
      <trkpt lat="44.41572" lon="1.17195">
        <ele>186</ele>
        <time>2021-02-09T12:02:37Z</time>
      </trkpt>
      <trkpt lat="44.41592" lon="1.17222">
        <ele>188</ele>
        <time>2021-02-09T12:02:22Z</time>
      </trkpt>
      <trkpt lat="44.41596" lon="1.17228">
        <ele>189</ele>
        <time>2021-02-09T12:02:18Z</time>
      </trkpt>
      <trkpt lat="44.41602" lon="1.17229">
        <ele>189</ele>
        <time>2021-02-09T12:02:14Z</time>
      </trkpt>
      <trkpt lat="44.41612" lon="1.17233">
        <ele>187</ele>
        <time>2021-02-09T12:02:06Z</time>
      </trkpt>
      <trkpt lat="44.41618" lon="1.17239">
        <ele>187</ele>
        <time>2021-02-09T12:02:02Z</time>
      </trkpt>
      <trkpt lat="44.4163" lon="1.17273">
        <ele>190</ele>
        <time>2021-02-09T12:01:46Z</time>
      </trkpt>
      <trkpt lat="44.41634" lon="1.17277">
        <ele>192</ele>
        <time>2021-02-09T12:01:42Z</time>
      </trkpt>
      <trkpt lat="44.41638" lon="1.17283">
        <ele>192</ele>
        <time>2021-02-09T12:01:37Z</time>
      </trkpt>
      <trkpt lat="44.41646" lon="1.17297">
        <ele>194</ele>
        <time>2021-02-09T12:01:26Z</time>
      </trkpt>
      <trkpt lat="44.41671" lon="1.17329">
        <ele>202</ele>
        <time>2021-02-09T12:00:56Z</time>
      </trkpt>
      <trkpt lat="44.41674" lon="1.17335">
        <ele>203</ele>
        <time>2021-02-09T12:00:53Z</time>
      </trkpt>
      <trkpt lat="44.41676" lon="1.17339">
        <ele>204</ele>
        <time>2021-02-09T12:00:49Z</time>
      </trkpt>
      <trkpt lat="44.4168" lon="1.17342">
        <ele>205</ele>
        <time>2021-02-09T12:00:46Z</time>
      </trkpt>
      <trkpt lat="44.41683" lon="1.17346">
        <ele>206</ele>
        <time>2021-02-09T12:00:35Z</time>
      </trkpt>
      <trkpt lat="44.41694" lon="1.17375">
        <ele>211</ele>
        <time>2021-02-09T12:00:21Z</time>
      </trkpt>
      <trkpt lat="44.41695" lon="1.17381">
        <ele>212</ele>
        <time>2021-02-09T12:00:16Z</time>
      </trkpt>
      <trkpt lat="44.41697" lon="1.17386">
        <ele>214</ele>
        <time>2021-02-09T12:00:13Z</time>
      </trkpt>
      <trkpt lat="44.417" lon="1.17392">
        <ele>215</ele>
        <time>2021-02-09T12:00:10Z</time>
      </trkpt>
      <trkpt lat="44.41706" lon="1.17398">
        <ele>217</ele>
        <time>2021-02-09T12:00:02Z</time>
      </trkpt>
      <trkpt lat="44.41709" lon="1.17398">
        <ele>217</ele>
        <time>2021-02-09T11:59:59Z</time>
      </trkpt>
      <trkpt lat="44.41719" lon="1.17394">
        <ele>220</ele>
        <time>2021-02-09T11:59:50Z</time>
      </trkpt>
      <trkpt lat="44.41749" lon="1.17371">
        <ele>227</ele>
        <time>2021-02-09T11:59:25Z</time>
      </trkpt>
      <trkpt lat="44.41759" lon="1.17362">
        <ele>227</ele>
        <time>2021-02-09T11:59:17Z</time>
      </trkpt>
      <trkpt lat="44.41778" lon="1.17344">
        <ele>231</ele>
        <time>2021-02-09T11:59:09Z</time>
      </trkpt>
      <trkpt lat="44.41823" lon="1.17308">
        <ele>237</ele>
        <time>2021-02-09T11:58:39Z</time>
      </trkpt>
      <trkpt lat="44.41841" lon="1.17296">
        <ele>238</ele>
        <time>2021-02-09T11:58:07Z</time>
      </trkpt>
      <trkpt lat="44.41848" lon="1.17291">
        <ele>239</ele>
        <time>2021-02-09T11:58:01Z</time>
      </trkpt>
      <trkpt lat="44.41869" lon="1.17277">
        <ele>243</ele>
        <time>2021-02-09T11:57:41Z</time>
      </trkpt>
      <trkpt lat="44.4187" lon="1.17275">
        <ele>244</ele>
        <time>2021-02-09T11:57:39Z</time>
      </trkpt>
      <trkpt lat="44.41888" lon="1.17263">
        <ele>247</ele>
        <time>2021-02-09T11:57:25Z</time>
      </trkpt>
      <trkpt lat="44.41912" lon="1.17252">
        <ele>250</ele>
        <time>2021-02-09T11:57:01Z</time>
      </trkpt>
      <trkpt lat="44.41915" lon="1.17252">
        <ele>251</ele>
        <time>2021-02-09T11:56:58Z</time>
      </trkpt>
      <trkpt lat="44.41917" lon="1.17252">
        <ele>252</ele>
        <time>2021-02-09T11:56:56Z</time>
      </trkpt>
      <trkpt lat="44.41918" lon="1.17251">
        <ele>251</ele>
        <time>2021-02-09T11:56:54Z</time>
      </trkpt>
      <trkpt lat="44.4192" lon="1.1725">
        <ele>251</ele>
        <time>2021-02-09T11:56:52Z</time>
      </trkpt>
      <trkpt lat="44.41924" lon="1.17249">
        <ele>250</ele>
        <time>2021-02-09T11:56:45Z</time>
      </trkpt>
      <trkpt lat="44.41933" lon="1.17244">
        <ele>249</ele>
        <time>2021-02-09T11:56:36Z</time>
      </trkpt>
      <trkpt lat="44.41933" lon="1.17241">
        <ele>248</ele>
        <time>2021-02-09T11:56:32Z</time>
      </trkpt>
      <trkpt lat="44.41931" lon="1.17242">
        <ele>249</ele>
        <time>2021-02-09T11:56:24Z</time>
      </trkpt>
      <trkpt lat="44.4193" lon="1.17246">
        <ele>249</ele>
        <time>2021-02-09T11:56:22Z</time>
      </trkpt>
      <trkpt lat="44.41911" lon="1.17269">
        <ele>248</ele>
        <time>2021-02-09T11:56:14Z</time>
      </trkpt>
      <trkpt lat="44.41844" lon="1.17349">
        <ele>254</ele>
        <time>2021-02-09T11:55:47Z</time>
      </trkpt>
      <trkpt lat="44.41778" lon="1.17412">
        <ele>255</ele>
        <time>2021-02-09T11:55:19Z</time>
      </trkpt>
      <trkpt lat="44.41749" lon="1.17444">
        <ele>254</ele>
        <time>2021-02-09T11:55:09Z</time>
      </trkpt>
      <trkpt lat="44.41732" lon="1.17471">
        <ele>251</ele>
        <time>2021-02-09T11:54:59Z</time>
      </trkpt>
      <trkpt lat="44.41717" lon="1.17486">
        <ele>250</ele>
        <time>2021-02-09T11:54:52Z</time>
      </trkpt>
      <trkpt lat="44.41711" lon="1.17495">
        <ele>249</ele>
        <time>2021-02-09T11:54:50Z</time>
      </trkpt>
      <trkpt lat="44.41704" lon="1.17512">
        <ele>248</ele>
        <time>2021-02-09T11:54:45Z</time>
      </trkpt>
      <trkpt lat="44.41645" lon="1.17573">
        <ele>249</ele>
        <time>2021-02-09T11:54:22Z</time>
      </trkpt>
      <trkpt lat="44.41621" lon="1.17588">
        <ele>250</ele>
        <time>2021-02-09T11:54:14Z</time>
      </trkpt>
      <trkpt lat="44.41615" lon="1.1759">
        <ele>251</ele>
        <time>2021-02-09T11:54:12Z</time>
      </trkpt>
      <trkpt lat="44.41612" lon="1.17589">
        <ele>251</ele>
        <time>2021-02-09T11:54:11Z</time>
      </trkpt>
      <trkpt lat="44.41589" lon="1.1758">
        <ele>253</ele>
        <time>2021-02-09T11:53:54Z</time>
      </trkpt>
      <trkpt lat="44.41581" lon="1.17578">
        <ele>253</ele>
        <time>2021-02-09T11:53:48Z</time>
      </trkpt>
      <trkpt lat="44.41569" lon="1.17581">
        <ele>253</ele>
        <time>2021-02-09T11:53:38Z</time>
      </trkpt>
      <trkpt lat="44.41552" lon="1.17594">
        <ele>250</ele>
        <time>2021-02-09T11:53:24Z</time>
      </trkpt>
      <trkpt lat="44.41548" lon="1.17596">
        <ele>249</ele>
        <time>2021-02-09T11:53:20Z</time>
      </trkpt>
      <trkpt lat="44.41543" lon="1.17595">
        <ele>249</ele>
        <time>2021-02-09T11:53:16Z</time>
      </trkpt>
      <trkpt lat="44.41541" lon="1.17595">
        <ele>248</ele>
        <time>2021-02-09T11:53:14Z</time>
      </trkpt>
      <trkpt lat="44.41537" lon="1.17596">
        <ele>248</ele>
        <time>2021-02-09T11:53:10Z</time>
      </trkpt>
      <trkpt lat="44.41532" lon="1.17596">
        <ele>247</ele>
        <time>2021-02-09T11:53:03Z</time>
      </trkpt>
      <trkpt lat="44.41519" lon="1.17592">
        <ele>248</ele>
        <time>2021-02-09T11:52:53Z</time>
      </trkpt>
      <trkpt lat="44.41491" lon="1.1758">
        <ele>250</ele>
        <time>2021-02-09T11:52:31Z</time>
      </trkpt>
      <trkpt lat="44.41489" lon="1.17579">
        <ele>251</ele>
        <time>2021-02-09T11:52:29Z</time>
      </trkpt>
      <trkpt lat="44.41485" lon="1.17578">
        <ele>252</ele>
        <time>2021-02-09T11:52:26Z</time>
      </trkpt>
      <trkpt lat="44.41465" lon="1.17558">
        <ele>253</ele>
        <time>2021-02-09T11:52:08Z</time>
      </trkpt>
      <trkpt lat="44.4146" lon="1.17545">
        <ele>253</ele>
        <time>2021-02-09T11:52:02Z</time>
      </trkpt>
      <trkpt lat="44.41457" lon="1.17535">
        <ele>255</ele>
        <time>2021-02-09T11:51:59Z</time>
      </trkpt>
      <trkpt lat="44.41449" lon="1.17516">
        <ele>258</ele>
        <time>2021-02-09T11:51:47Z</time>
      </trkpt>
      <trkpt lat="44.41447" lon="1.17514">
        <ele>257</ele>
        <time>2021-02-09T11:51:45Z</time>
      </trkpt>
      <trkpt lat="44.41445" lon="1.17514">
        <ele>258</ele>
        <time>2021-02-09T11:51:43Z</time>
      </trkpt>
      <trkpt lat="44.41439" lon="1.17517">
        <ele>256</ele>
        <time>2021-02-09T11:51:35Z</time>
      </trkpt>
      <trkpt lat="44.41437" lon="1.17518">
        <ele>256</ele>
        <time>2021-02-09T11:51:30Z</time>
      </trkpt>
      <trkpt lat="44.41434" lon="1.17523">
        <ele>257</ele>
        <time>2021-02-09T11:51:17Z</time>
      </trkpt>
      <trkpt lat="44.4143" lon="1.1753">
        <ele>258</ele>
        <time>2021-02-09T11:51:12Z</time>
      </trkpt>
      <trkpt lat="44.41426" lon="1.17539">
        <ele>259</ele>
        <time>2021-02-09T11:51:05Z</time>
      </trkpt>
      <trkpt lat="44.41424" lon="1.17541">
        <ele>259</ele>
        <time>2021-02-09T11:51:03Z</time>
      </trkpt>
      <trkpt lat="44.4142" lon="1.17551">
        <ele>260</ele>
        <time>2021-02-09T11:50:49Z</time>
      </trkpt>
      <trkpt lat="44.41418" lon="1.17557">
        <ele>261</ele>
        <time>2021-02-09T11:50:45Z</time>
      </trkpt>
      <trkpt lat="44.41409" lon="1.17581">
        <ele>260</ele>
        <time>2021-02-09T11:50:29Z</time>
      </trkpt>
      <trkpt lat="44.414" lon="1.17626">
        <ele>259</ele>
        <time>2021-02-09T11:50:04Z</time>
      </trkpt>
      <trkpt lat="44.41396" lon="1.17642">
        <ele>260</ele>
        <time>2021-02-09T11:49:54Z</time>
      </trkpt>
      <trkpt lat="44.41392" lon="1.17651">
        <ele>260</ele>
        <time>2021-02-09T11:49:48Z</time>
      </trkpt>
      <trkpt lat="44.41389" lon="1.17661">
        <ele>259</ele>
        <time>2021-02-09T11:49:41Z</time>
      </trkpt>
      <trkpt lat="44.41384" lon="1.17666">
        <ele>256</ele>
        <time>2021-02-09T11:49:09Z</time>
      </trkpt>
      <trkpt lat="44.41381" lon="1.17669">
        <ele>254</ele>
        <time>2021-02-09T11:48:56Z</time>
      </trkpt>
      <trkpt lat="44.4137" lon="1.17686">
        <ele>254</ele>
        <time>2021-02-09T11:48:50Z</time>
      </trkpt>
      <trkpt lat="44.41355" lon="1.17701">
        <ele>254</ele>
        <time>2021-02-09T11:48:44Z</time>
      </trkpt>
      <trkpt lat="44.41349" lon="1.17703">
        <ele>254</ele>
        <time>2021-02-09T11:48:42Z</time>
      </trkpt>
      <trkpt lat="44.41327" lon="1.17704">
        <ele>257</ele>
        <time>2021-02-09T11:48:35Z</time>
      </trkpt>
      <trkpt lat="44.41315" lon="1.17709">
        <ele>260</ele>
        <time>2021-02-09T11:48:29Z</time>
      </trkpt>
      <trkpt lat="44.41311" lon="1.17708">
        <ele>260</ele>
        <time>2021-02-09T11:48:27Z</time>
      </trkpt>
      <trkpt lat="44.41295" lon="1.17694">
        <ele>263</ele>
        <time>2021-02-09T11:48:18Z</time>
      </trkpt>
      <trkpt lat="44.41295" lon="1.17689">
        <ele>263</ele>
        <time>2021-02-09T11:48:15Z</time>
      </trkpt>
      <trkpt lat="44.41298" lon="1.17674">
        <ele>262</ele>
        <time>2021-02-09T11:48:05Z</time>
      </trkpt>
      <trkpt lat="44.41298" lon="1.17668">
        <ele>263</ele>
        <time>2021-02-09T11:48:02Z</time>
      </trkpt>
      <trkpt lat="44.41296" lon="1.17662">
        <ele>263</ele>
        <time>2021-02-09T11:47:59Z</time>
      </trkpt>
      <trkpt lat="44.41292" lon="1.17653">
        <ele>263</ele>
        <time>2021-02-09T11:47:53Z</time>
      </trkpt>
      <trkpt lat="44.41289" lon="1.17649">
        <ele>264</ele>
        <time>2021-02-09T11:47:50Z</time>
      </trkpt>
      <trkpt lat="44.41279" lon="1.17644">
        <ele>266</ele>
        <time>2021-02-09T11:47:40Z</time>
      </trkpt>
      <trkpt lat="44.41279" lon="1.17641">
        <ele>266</ele>
        <time>2021-02-09T11:47:38Z</time>
      </trkpt>
      <trkpt lat="44.41278" lon="1.17637">
        <ele>266</ele>
        <time>2021-02-09T11:47:36Z</time>
      </trkpt>
      <trkpt lat="44.41275" lon="1.17634">
        <ele>266</ele>
        <time>2021-02-09T11:47:33Z</time>
      </trkpt>
      <trkpt lat="44.41272" lon="1.17632">
        <ele>266</ele>
        <time>2021-02-09T11:47:30Z</time>
      </trkpt>
      <trkpt lat="44.4127" lon="1.17634">
        <ele>266</ele>
        <time>2021-02-09T11:47:28Z</time>
      </trkpt>
      <trkpt lat="44.41268" lon="1.17637">
        <ele>266</ele>
        <time>2021-02-09T11:47:25Z</time>
      </trkpt>
      <trkpt lat="44.41266" lon="1.1764">
        <ele>267</ele>
        <time>2021-02-09T11:47:22Z</time>
      </trkpt>
      <trkpt lat="44.41264" lon="1.1764">
        <ele>268</ele>
        <time>2021-02-09T11:47:20Z</time>
      </trkpt>
      <trkpt lat="44.41258" lon="1.17641">
        <ele>268</ele>
        <time>2021-02-09T11:47:16Z</time>
      </trkpt>
      <trkpt lat="44.41255" lon="1.17645">
        <ele>268</ele>
        <time>2021-02-09T11:47:12Z</time>
      </trkpt>
      <trkpt lat="44.4125" lon="1.17657">
        <ele>266</ele>
        <time>2021-02-09T11:47:04Z</time>
      </trkpt>
      <trkpt lat="44.41248" lon="1.17661">
        <ele>267</ele>
        <time>2021-02-09T11:47:00Z</time>
      </trkpt>
      <trkpt lat="44.4124" lon="1.17668">
        <ele>266</ele>
        <time>2021-02-09T11:46:52Z</time>
      </trkpt>
      <trkpt lat="44.41231" lon="1.17674">
        <ele>266</ele>
        <time>2021-02-09T11:46:44Z</time>
      </trkpt>
      <trkpt lat="44.41229" lon="1.17673">
        <ele>266</ele>
        <time>2021-02-09T11:46:42Z</time>
      </trkpt>
      <trkpt lat="44.41226" lon="1.17672">
        <ele>266</ele>
        <time>2021-02-09T11:46:40Z</time>
      </trkpt>
      <trkpt lat="44.41222" lon="1.1767">
        <ele>266</ele>
        <time>2021-02-09T11:46:36Z</time>
      </trkpt>
      <trkpt lat="44.41211" lon="1.17667">
        <ele>267</ele>
        <time>2021-02-09T11:46:28Z</time>
      </trkpt>
      <trkpt lat="44.41203" lon="1.17671">
        <ele>267</ele>
        <time>2021-02-09T11:46:21Z</time>
      </trkpt>
      <trkpt lat="44.41171" lon="1.1769">
        <ele>264</ele>
        <time>2021-02-09T11:45:51Z</time>
      </trkpt>
      <trkpt lat="44.41164" lon="1.17699">
        <ele>263</ele>
        <time>2021-02-09T11:45:43Z</time>
      </trkpt>
      <trkpt lat="44.41162" lon="1.177">
        <ele>263</ele>
        <time>2021-02-09T11:45:41Z</time>
      </trkpt>
      <trkpt lat="44.41154" lon="1.17703">
        <ele>263</ele>
        <time>2021-02-09T11:45:34Z</time>
      </trkpt>
      <trkpt lat="44.41151" lon="1.17706">
        <ele>262</ele>
        <time>2021-02-09T11:45:30Z</time>
      </trkpt>
      <trkpt lat="44.41146" lon="1.17708">
        <ele>261</ele>
        <time>2021-02-09T11:45:25Z</time>
      </trkpt>
      <trkpt lat="44.41143" lon="1.1771">
        <ele>261</ele>
        <time>2021-02-09T11:45:23Z</time>
      </trkpt>
      <trkpt lat="44.41135" lon="1.17711">
        <ele>260</ele>
        <time>2021-02-09T11:45:17Z</time>
      </trkpt>
      <trkpt lat="44.4113" lon="1.17715">
        <ele>260</ele>
        <time>2021-02-09T11:45:12Z</time>
      </trkpt>
      <trkpt lat="44.41125" lon="1.17715">
        <ele>259</ele>
        <time>2021-02-09T11:45:08Z</time>
      </trkpt>
      <trkpt lat="44.41122" lon="1.17714">
        <ele>259</ele>
        <time>2021-02-09T11:45:06Z</time>
      </trkpt>
      <trkpt lat="44.41115" lon="1.1771">
        <ele>260</ele>
        <time>2021-02-09T11:45:00Z</time>
      </trkpt>
      <trkpt lat="44.41093" lon="1.17704">
        <ele>259</ele>
        <time>2021-02-09T11:44:42Z</time>
      </trkpt>
      <trkpt lat="44.4109" lon="1.17704">
        <ele>259</ele>
        <time>2021-02-09T11:44:31Z</time>
      </trkpt>
      <trkpt lat="44.41091" lon="1.17701">
        <ele>259</ele>
        <time>2021-02-09T11:44:21Z</time>
      </trkpt>
      <trkpt lat="44.41089" lon="1.177">
        <ele>258</ele>
        <time>2021-02-09T11:44:19Z</time>
      </trkpt>
      <trkpt lat="44.41084" lon="1.17695">
        <ele>258</ele>
        <time>2021-02-09T11:44:15Z</time>
      </trkpt>
      <trkpt lat="44.41076" lon="1.17686">
        <ele>258</ele>
        <time>2021-02-09T11:44:07Z</time>
      </trkpt>
      <trkpt lat="44.41072" lon="1.17676">
        <ele>257</ele>
        <time>2021-02-09T11:44:01Z</time>
      </trkpt>
      <trkpt lat="44.41066" lon="1.17669">
        <ele>257</ele>
        <time>2021-02-09T11:43:55Z</time>
      </trkpt>
      <trkpt lat="44.41058" lon="1.17665">
        <ele>257</ele>
        <time>2021-02-09T11:43:49Z</time>
      </trkpt>
      <trkpt lat="44.41046" lon="1.1767">
        <ele>258</ele>
        <time>2021-02-09T11:43:41Z</time>
      </trkpt>
      <trkpt lat="44.41044" lon="1.1767">
        <ele>258</ele>
        <time>2021-02-09T11:43:39Z</time>
      </trkpt>
      <trkpt lat="44.41036" lon="1.17666">
        <ele>258</ele>
        <time>2021-02-09T11:43:33Z</time>
      </trkpt>
      <trkpt lat="44.41033" lon="1.17665">
        <ele>259</ele>
        <time>2021-02-09T11:43:31Z</time>
      </trkpt>
      <trkpt lat="44.41032" lon="1.17664">
        <ele>259</ele>
        <time>2021-02-09T11:43:29Z</time>
      </trkpt>
      <trkpt lat="44.41022" lon="1.17658">
        <ele>260</ele>
        <time>2021-02-09T11:43:20Z</time>
      </trkpt>
      <trkpt lat="44.40994" lon="1.17633">
        <ele>257</ele>
        <time>2021-02-09T11:42:48Z</time>
      </trkpt>
      <trkpt lat="44.40983" lon="1.17617">
        <ele>256</ele>
        <time>2021-02-09T11:42:40Z</time>
      </trkpt>
      <trkpt lat="44.40979" lon="1.1761">
        <ele>258</ele>
        <time>2021-02-09T11:42:38Z</time>
      </trkpt>
      <trkpt lat="44.40966" lon="1.17594">
        <ele>259</ele>
        <time>2021-02-09T11:42:30Z</time>
      </trkpt>
      <trkpt lat="44.40964" lon="1.17587">
        <ele>260</ele>
        <time>2021-02-09T11:42:28Z</time>
      </trkpt>
      <trkpt lat="44.40963" lon="1.1758">
        <ele>260</ele>
        <time>2021-02-09T11:42:26Z</time>
      </trkpt>
      <trkpt lat="44.40963" lon="1.17571">
        <ele>261</ele>
        <time>2021-02-09T11:42:24Z</time>
      </trkpt>
      <trkpt lat="44.40957" lon="1.17552">
        <ele>264</ele>
        <time>2021-02-09T11:42:14Z</time>
      </trkpt>
      <trkpt lat="44.40957" lon="1.17546">
        <ele>265</ele>
        <time>2021-02-09T11:42:11Z</time>
      </trkpt>
      <trkpt lat="44.40957" lon="1.17513">
        <ele>269</ele>
        <time>2021-02-09T11:41:40Z</time>
      </trkpt>
      <trkpt lat="44.40956" lon="1.17509">
        <ele>270</ele>
        <time>2021-02-09T11:41:36Z</time>
      </trkpt>
      <trkpt lat="44.40954" lon="1.17502">
        <ele>271</ele>
        <time>2021-02-09T11:41:32Z</time>
      </trkpt>
      <trkpt lat="44.40948" lon="1.17492">
        <ele>271</ele>
        <time>2021-02-09T11:41:25Z</time>
      </trkpt>
      <trkpt lat="44.40936" lon="1.17477">
        <ele>272</ele>
        <time>2021-02-09T11:41:10Z</time>
      </trkpt>
      <trkpt lat="44.40931" lon="1.17472">
        <ele>273</ele>
        <time>2021-02-09T11:41:05Z</time>
      </trkpt>
      <trkpt lat="44.40926" lon="1.17466">
        <ele>274</ele>
        <time>2021-02-09T11:41:00Z</time>
      </trkpt>
      <trkpt lat="44.40921" lon="1.17451">
        <ele>272</ele>
        <time>2021-02-09T11:40:50Z</time>
      </trkpt>
      <trkpt lat="44.40915" lon="1.1745">
        <ele>271</ele>
        <time>2021-02-09T11:40:46Z</time>
      </trkpt>
      <trkpt lat="44.40914" lon="1.17451">
        <ele>271</ele>
        <time>2021-02-09T11:40:45Z</time>
      </trkpt>
      <trkpt lat="44.40912" lon="1.17454">
        <ele>272</ele>
        <time>2021-02-09T11:40:44Z</time>
      </trkpt>
      <trkpt lat="44.40912" lon="1.17458">
        <ele>272</ele>
        <time>2021-02-09T11:40:43Z</time>
      </trkpt>
      <trkpt lat="44.40907" lon="1.17466">
        <ele>273</ele>
        <time>2021-02-09T11:40:40Z</time>
      </trkpt>
      <trkpt lat="44.4089" lon="1.17544">
        <ele>277</ele>
        <time>2021-02-09T11:40:16Z</time>
      </trkpt>
      <trkpt lat="44.40886" lon="1.17553">
        <ele>277</ele>
        <time>2021-02-09T11:40:10Z</time>
      </trkpt>
      <trkpt lat="44.40884" lon="1.17554">
        <ele>277</ele>
        <time>2021-02-09T11:40:08Z</time>
      </trkpt>
      <trkpt lat="44.40879" lon="1.17555">
        <ele>277</ele>
        <time>2021-02-09T11:40:04Z</time>
      </trkpt>
      <trkpt lat="44.40873" lon="1.17561">
        <ele>277</ele>
        <time>2021-02-09T11:39:59Z</time>
      </trkpt>
      <trkpt lat="44.40868" lon="1.17566">
        <ele>275</ele>
        <time>2021-02-09T11:39:54Z</time>
      </trkpt>
      <trkpt lat="44.40864" lon="1.1757">
        <ele>275</ele>
        <time>2021-02-09T11:39:50Z</time>
      </trkpt>
      <trkpt lat="44.4086" lon="1.17576">
        <ele>276</ele>
        <time>2021-02-09T11:39:46Z</time>
      </trkpt>
      <trkpt lat="44.40854" lon="1.17592">
        <ele>276</ele>
        <time>2021-02-09T11:39:35Z</time>
      </trkpt>
      <trkpt lat="44.40852" lon="1.17595">
        <ele>276</ele>
        <time>2021-02-09T11:39:33Z</time>
      </trkpt>
      <trkpt lat="44.40851" lon="1.17598">
        <ele>277</ele>
        <time>2021-02-09T11:39:31Z</time>
      </trkpt>
      <trkpt lat="44.40847" lon="1.17604">
        <ele>279</ele>
        <time>2021-02-09T11:39:27Z</time>
      </trkpt>
      <trkpt lat="44.40831" lon="1.17638">
        <ele>277</ele>
        <time>2021-02-09T11:38:57Z</time>
      </trkpt>
      <trkpt lat="44.4083" lon="1.17642">
        <ele>276</ele>
        <time>2021-02-09T11:38:55Z</time>
      </trkpt>
      <trkpt lat="44.40827" lon="1.17645">
        <ele>275</ele>
        <time>2021-02-09T11:38:53Z</time>
      </trkpt>
      <trkpt lat="44.40787" lon="1.17682">
        <ele>275</ele>
        <time>2021-02-09T11:38:36Z</time>
      </trkpt>
      <trkpt lat="44.40755" lon="1.17702">
        <ele>272</ele>
        <time>2021-02-09T11:38:24Z</time>
      </trkpt>
      <trkpt lat="44.40747" lon="1.17713">
        <ele>272</ele>
        <time>2021-02-09T11:38:20Z</time>
      </trkpt>
      <trkpt lat="44.40727" lon="1.17752">
        <ele>270</ele>
        <time>2021-02-09T11:38:09Z</time>
      </trkpt>
      <trkpt lat="44.40719" lon="1.17773">
        <ele>269</ele>
        <time>2021-02-09T11:38:04Z</time>
      </trkpt>
      <trkpt lat="44.40698" lon="1.17827">
        <ele>267</ele>
        <time>2021-02-09T11:37:50Z</time>
      </trkpt>
      <trkpt lat="44.4069" lon="1.17837">
        <ele>267</ele>
        <time>2021-02-09T11:37:47Z</time>
      </trkpt>
      <trkpt lat="44.40671" lon="1.17851">
        <ele>267</ele>
        <time>2021-02-09T11:37:40Z</time>
      </trkpt>
      <trkpt lat="44.40664" lon="1.17859">
        <ele>266</ele>
        <time>2021-02-09T11:37:37Z</time>
      </trkpt>
      <trkpt lat="44.40646" lon="1.17873">
        <ele>269</ele>
        <time>2021-02-09T11:37:26Z</time>
      </trkpt>
      <trkpt lat="44.40645" lon="1.17876">
        <ele>269</ele>
        <time>2021-02-09T11:37:24Z</time>
      </trkpt>
      <trkpt lat="44.40643" lon="1.17877">
        <ele>268</ele>
        <time>2021-02-09T11:37:22Z</time>
      </trkpt>
      <trkpt lat="44.40641" lon="1.17877">
        <ele>268</ele>
        <time>2021-02-09T11:37:20Z</time>
      </trkpt>
      <trkpt lat="44.40638" lon="1.17878">
        <ele>268</ele>
        <time>2021-02-09T11:37:18Z</time>
      </trkpt>
      <trkpt lat="44.40635" lon="1.1788">
        <ele>267</ele>
        <time>2021-02-09T11:37:15Z</time>
      </trkpt>
      <trkpt lat="44.40632" lon="1.17881">
        <ele>265</ele>
        <time>2021-02-09T11:37:12Z</time>
      </trkpt>
      <trkpt lat="44.40628" lon="1.17884">
        <ele>265</ele>
        <time>2021-02-09T11:37:10Z</time>
      </trkpt>
      <trkpt lat="44.40616" lon="1.17894">
        <ele>263</ele>
        <time>2021-02-09T11:37:03Z</time>
      </trkpt>
      <trkpt lat="44.40593" lon="1.17913">
        <ele>264</ele>
        <time>2021-02-09T11:36:53Z</time>
      </trkpt>
      <trkpt lat="44.40577" lon="1.1792">
        <ele>265</ele>
        <time>2021-02-09T11:36:49Z</time>
      </trkpt>
      <trkpt lat="44.4057" lon="1.17922">
        <ele>265</ele>
        <time>2021-02-09T11:36:37Z</time>
      </trkpt>
      <trkpt lat="44.40564" lon="1.17923">
        <ele>265</ele>
        <time>2021-02-09T11:36:35Z</time>
      </trkpt>
      <trkpt lat="44.4056" lon="1.17924">
        <ele>266</ele>
        <time>2021-02-09T11:36:33Z</time>
      </trkpt>
      <trkpt lat="44.40556" lon="1.17925">
        <ele>265</ele>
        <time>2021-02-09T11:36:31Z</time>
      </trkpt>
      <trkpt lat="44.40551" lon="1.17928">
        <ele>265</ele>
        <time>2021-02-09T11:36:29Z</time>
      </trkpt>
      <trkpt lat="44.40548" lon="1.17929">
        <ele>265</ele>
        <time>2021-02-09T11:36:25Z</time>
      </trkpt>
      <trkpt lat="44.40546" lon="1.17928">
        <ele>265</ele>
        <time>2021-02-09T11:36:23Z</time>
      </trkpt>
      <trkpt lat="44.40543" lon="1.1793">
        <ele>265</ele>
        <time>2021-02-09T11:36:21Z</time>
      </trkpt>
      <trkpt lat="44.4054" lon="1.1793">
        <ele>265</ele>
        <time>2021-02-09T11:36:18Z</time>
      </trkpt>
      <trkpt lat="44.40537" lon="1.17931">
        <ele>265</ele>
        <time>2021-02-09T11:36:16Z</time>
      </trkpt>
      <trkpt lat="44.40523" lon="1.17936">
        <ele>265</ele>
        <time>2021-02-09T11:36:04Z</time>
      </trkpt>
      <trkpt lat="44.40521" lon="1.17938">
        <ele>266</ele>
        <time>2021-02-09T11:36:02Z</time>
      </trkpt>
      <trkpt lat="44.40516" lon="1.17944">
        <ele>266</ele>
        <time>2021-02-09T11:35:56Z</time>
      </trkpt>
      <trkpt lat="44.40503" lon="1.17964">
        <ele>261</ele>
        <time>2021-02-09T11:35:43Z</time>
      </trkpt>
      <trkpt lat="44.40499" lon="1.17965">
        <ele>261</ele>
        <time>2021-02-09T11:35:41Z</time>
      </trkpt>
      <trkpt lat="44.40444" lon="1.1798">
        <ele>266</ele>
        <time>2021-02-09T11:35:21Z</time>
      </trkpt>
      <trkpt lat="44.40398" lon="1.17988">
        <ele>267</ele>
        <time>2021-02-09T11:34:51Z</time>
      </trkpt>
      <trkpt lat="44.40389" lon="1.1799">
        <ele>267</ele>
        <time>2021-02-09T11:34:45Z</time>
      </trkpt>
      <trkpt lat="44.40384" lon="1.17989">
        <ele>267</ele>
        <time>2021-02-09T11:34:41Z</time>
      </trkpt>
      <trkpt lat="44.4037" lon="1.17986">
        <ele>267</ele>
        <time>2021-02-09T11:34:31Z</time>
      </trkpt>
      <trkpt lat="44.40328" lon="1.17966">
        <ele>268</ele>
        <time>2021-02-09T11:33:58Z</time>
      </trkpt>
      <trkpt lat="44.40285" lon="1.1795">
        <ele>268</ele>
        <time>2021-02-09T11:33:26Z</time>
      </trkpt>
      <trkpt lat="44.40242" lon="1.1794">
        <ele>268</ele>
        <time>2021-02-09T11:32:56Z</time>
      </trkpt>
      <trkpt lat="44.40212" lon="1.17939">
        <ele>270</ele>
        <time>2021-02-09T11:32:34Z</time>
      </trkpt>
      <trkpt lat="44.40191" lon="1.17933">
        <ele>271</ele>
        <time>2021-02-09T11:32:18Z</time>
      </trkpt>
      <trkpt lat="44.40178" lon="1.17933">
        <ele>271</ele>
        <time>2021-02-09T11:32:10Z</time>
      </trkpt>
      <trkpt lat="44.4017" lon="1.17932">
        <ele>270</ele>
        <time>2021-02-09T11:32:04Z</time>
      </trkpt>
      <trkpt lat="44.40155" lon="1.17933">
        <ele>270</ele>
        <time>2021-02-09T11:31:52Z</time>
      </trkpt>
      <trkpt lat="44.40125" lon="1.1793">
        <ele>269</ele>
        <time>2021-02-09T11:21:19Z</time>
      </trkpt>
      <trkpt lat="44.40117" lon="1.17929">
        <ele>270</ele>
        <time>2021-02-09T11:21:13Z</time>
      </trkpt>
      <trkpt lat="44.40115" lon="1.17928">
        <ele>271</ele>
        <time>2021-02-09T11:21:11Z</time>
      </trkpt>
      <trkpt lat="44.40113" lon="1.17928">
        <ele>272</ele>
        <time>2021-02-09T11:20:56Z</time>
      </trkpt>
      <trkpt lat="44.40111" lon="1.17928">
        <ele>272</ele>
        <time>2021-02-09T11:20:54Z</time>
      </trkpt>
      <trkpt lat="44.40092" lon="1.17925">
        <ele>273</ele>
        <time>2021-02-09T11:20:38Z</time>
      </trkpt>
      <trkpt lat="44.40087" lon="1.17923">
        <ele>273</ele>
        <time>2021-02-09T11:20:34Z</time>
      </trkpt>
      <trkpt lat="44.40085" lon="1.17921">
        <ele>273</ele>
        <time>2021-02-09T11:20:32Z</time>
      </trkpt>
      <trkpt lat="44.40086" lon="1.17918">
        <ele>273</ele>
        <time>2021-02-09T11:20:30Z</time>
      </trkpt>
      <trkpt lat="44.40088" lon="1.17918">
        <ele>272</ele>
        <time>2021-02-09T11:20:27Z</time>
      </trkpt>
      <trkpt lat="44.40088" lon="1.17922">
        <ele>272</ele>
        <time>2021-02-09T11:20:22Z</time>
      </trkpt>
      <trkpt lat="44.40085" lon="1.17922">
        <ele>272</ele>
        <time>2021-02-09T11:20:20Z</time>
      </trkpt>
      <trkpt lat="44.40082" lon="1.17922">
        <ele>271</ele>
        <time>2021-02-09T11:20:18Z</time>
      </trkpt>
      <trkpt lat="44.40077" lon="1.17923">
        <ele>270</ele>
        <time>2021-02-09T11:20:14Z</time>
      </trkpt>
      <trkpt lat="44.40074" lon="1.17923">
        <ele>269</ele>
        <time>2021-02-09T11:20:12Z</time>
      </trkpt>
      <trkpt lat="44.40072" lon="1.17924">
        <ele>269</ele>
        <time>2021-02-09T11:20:10Z</time>
      </trkpt>
      <trkpt lat="44.40068" lon="1.17925">
        <ele>268</ele>
        <time>2021-02-09T11:20:08Z</time>
      </trkpt>
      <trkpt lat="44.40064" lon="1.17924">
        <ele>268</ele>
        <time>2021-02-09T11:20:06Z</time>
      </trkpt>
      <trkpt lat="44.40061" lon="1.17924">
        <ele>267</ele>
        <time>2021-02-09T11:20:04Z</time>
      </trkpt>
      <trkpt lat="44.40045" lon="1.17928">
        <ele>270</ele>
        <time>2021-02-09T11:19:51Z</time>
      </trkpt>
      <trkpt lat="44.40016" lon="1.17946">
        <ele>272</ele>
        <time>2021-02-09T11:19:26Z</time>
      </trkpt>
      <trkpt lat="44.40009" lon="1.17954">
        <ele>271</ele>
        <time>2021-02-09T11:19:19Z</time>
      </trkpt>
      <trkpt lat="44.40004" lon="1.17957">
        <ele>271</ele>
        <time>2021-02-09T11:19:15Z</time>
      </trkpt>
      <trkpt lat="44.39998" lon="1.17958">
        <ele>271</ele>
        <time>2021-02-09T11:19:10Z</time>
      </trkpt>
      <trkpt lat="44.39983" lon="1.17965">
        <ele>270</ele>
        <time>2021-02-09T11:18:59Z</time>
      </trkpt>
      <trkpt lat="44.39948" lon="1.17992">
        <ele>273</ele>
        <time>2021-02-09T11:18:28Z</time>
      </trkpt>
      <trkpt lat="44.39935" lon="1.17998">
        <ele>273</ele>
        <time>2021-02-09T11:18:18Z</time>
      </trkpt>
      <trkpt lat="44.39916" lon="1.18012">
        <ele>274</ele>
        <time>2021-02-09T11:18:02Z</time>
      </trkpt>
      <trkpt lat="44.39913" lon="1.18014">
        <ele>274</ele>
        <time>2021-02-09T11:18:00Z</time>
      </trkpt>
      <trkpt lat="44.39912" lon="1.18018">
        <ele>274</ele>
        <time>2021-02-09T11:17:58Z</time>
      </trkpt>
      <trkpt lat="44.39911" lon="1.18021">
        <ele>274</ele>
        <time>2021-02-09T11:17:56Z</time>
      </trkpt>
      <trkpt lat="44.39913" lon="1.18036">
        <ele>276</ele>
        <time>2021-02-09T11:17:48Z</time>
      </trkpt>
      <trkpt lat="44.39921" lon="1.18052">
        <ele>276</ele>
        <time>2021-02-09T11:17:38Z</time>
      </trkpt>
      <trkpt lat="44.39921" lon="1.18056">
        <ele>276</ele>
        <time>2021-02-09T11:17:36Z</time>
      </trkpt>
      <trkpt lat="44.39922" lon="1.18066">
        <ele>275</ele>
        <time>2021-02-09T11:17:30Z</time>
      </trkpt>
      <trkpt lat="44.39921" lon="1.1807">
        <ele>276</ele>
        <time>2021-02-09T11:17:28Z</time>
      </trkpt>
      <trkpt lat="44.39919" lon="1.18075">
        <ele>276</ele>
        <time>2021-02-09T11:17:25Z</time>
      </trkpt>
      <trkpt lat="44.39917" lon="1.18078">
        <ele>277</ele>
        <time>2021-02-09T11:17:23Z</time>
      </trkpt>
      <trkpt lat="44.39915" lon="1.18079">
        <ele>277</ele>
        <time>2021-02-09T11:17:21Z</time>
      </trkpt>
      <trkpt lat="44.39912" lon="1.1808">
        <ele>277</ele>
        <time>2021-02-09T11:17:18Z</time>
      </trkpt>
      <trkpt lat="44.39908" lon="1.18084">
        <ele>278</ele>
        <time>2021-02-09T11:17:14Z</time>
      </trkpt>
      <trkpt lat="44.39902" lon="1.18085">
        <ele>279</ele>
        <time>2021-02-09T11:17:09Z</time>
      </trkpt>
      <trkpt lat="44.39899" lon="1.18089">
        <ele>280</ele>
        <time>2021-02-09T11:17:05Z</time>
      </trkpt>
      <trkpt lat="44.3989" lon="1.18096">
        <ele>282</ele>
        <time>2021-02-09T11:16:57Z</time>
      </trkpt>
      <trkpt lat="44.39882" lon="1.18104">
        <ele>283</ele>
        <time>2021-02-09T11:16:49Z</time>
      </trkpt>
      <trkpt lat="44.39876" lon="1.18114">
        <ele>284</ele>
        <time>2021-02-09T11:16:41Z</time>
      </trkpt>
      <trkpt lat="44.39872" lon="1.18119">
        <ele>285</ele>
        <time>2021-02-09T11:16:36Z</time>
      </trkpt>
      <trkpt lat="44.39871" lon="1.18123">
        <ele>285</ele>
        <time>2021-02-09T11:16:34Z</time>
      </trkpt>
      <trkpt lat="44.39869" lon="1.18129">
        <ele>285</ele>
        <time>2021-02-09T11:16:30Z</time>
      </trkpt>
      <trkpt lat="44.39868" lon="1.18131">
        <ele>285</ele>
        <time>2021-02-09T11:16:28Z</time>
      </trkpt>
      <trkpt lat="44.39866" lon="1.18134">
        <ele>285</ele>
        <time>2021-02-09T11:16:26Z</time>
      </trkpt>
      <trkpt lat="44.39864" lon="1.18137">
        <ele>285</ele>
        <time>2021-02-09T11:16:24Z</time>
      </trkpt>
      <trkpt lat="44.39859" lon="1.18163">
        <ele>281</ele>
        <time>2021-02-09T11:16:10Z</time>
      </trkpt>
      <trkpt lat="44.39857" lon="1.18167">
        <ele>281</ele>
        <time>2021-02-09T11:16:08Z</time>
      </trkpt>
      <trkpt lat="44.39856" lon="1.18183">
        <ele>283</ele>
        <time>2021-02-09T11:15:59Z</time>
      </trkpt>
      <trkpt lat="44.39859" lon="1.18192">
        <ele>283</ele>
        <time>2021-02-09T11:15:54Z</time>
      </trkpt>
      <trkpt lat="44.39858" lon="1.18198">
        <ele>283</ele>
        <time>2021-02-09T11:15:50Z</time>
      </trkpt>
      <trkpt lat="44.39859" lon="1.18205">
        <ele>283</ele>
        <time>2021-02-09T11:15:45Z</time>
      </trkpt>
      <trkpt lat="44.39859" lon="1.1821">
        <ele>283</ele>
        <time>2021-02-09T11:15:42Z</time>
      </trkpt>
      <trkpt lat="44.39858" lon="1.18222">
        <ele>287</ele>
        <time>2021-02-09T11:15:35Z</time>
      </trkpt>
      <trkpt lat="44.39857" lon="1.18225">
        <ele>287</ele>
        <time>2021-02-09T11:15:33Z</time>
      </trkpt>
      <trkpt lat="44.39855" lon="1.18225">
        <ele>287</ele>
        <time>2021-02-09T11:15:30Z</time>
      </trkpt>
      <trkpt lat="44.39856" lon="1.18222">
        <ele>284</ele>
        <time>2021-02-09T11:14:55Z</time>
      </trkpt>
      <trkpt lat="44.39858" lon="1.18219">
        <ele>284</ele>
        <time>2021-02-09T11:14:52Z</time>
      </trkpt>
      <trkpt lat="44.3986" lon="1.18218">
        <ele>284</ele>
        <time>2021-02-09T11:14:48Z</time>
      </trkpt>
      <trkpt lat="44.39859" lon="1.18225">
        <ele>283</ele>
        <time>2021-02-09T11:14:43Z</time>
      </trkpt>
      <trkpt lat="44.39858" lon="1.1823">
        <ele>283</ele>
        <time>2021-02-09T11:14:40Z</time>
      </trkpt>
      <trkpt lat="44.39857" lon="1.18233">
        <ele>282</ele>
        <time>2021-02-09T11:14:37Z</time>
      </trkpt>
      <trkpt lat="44.39848" lon="1.18258">
        <ele>284</ele>
        <time>2021-02-09T11:14:22Z</time>
      </trkpt>
      <trkpt lat="44.39845" lon="1.18265">
        <ele>283</ele>
        <time>2021-02-09T11:14:18Z</time>
      </trkpt>
      <trkpt lat="44.39827" lon="1.18319">
        <ele>284</ele>
        <time>2021-02-09T11:13:48Z</time>
      </trkpt>
      <trkpt lat="44.39804" lon="1.1837">
        <ele>281</ele>
        <time>2021-02-09T11:13:20Z</time>
      </trkpt>
      <trkpt lat="44.39776" lon="1.18407">
        <ele>280</ele>
        <time>2021-02-09T11:12:54Z</time>
      </trkpt>
      <trkpt lat="44.3977" lon="1.18417">
        <ele>279</ele>
        <time>2021-02-09T11:12:48Z</time>
      </trkpt>
      <trkpt lat="44.39765" lon="1.18422">
        <ele>278</ele>
        <time>2021-02-09T11:12:44Z</time>
      </trkpt>
      <trkpt lat="44.3976" lon="1.18432">
        <ele>277</ele>
        <time>2021-02-09T11:12:38Z</time>
      </trkpt>
      <trkpt lat="44.39754" lon="1.18456">
        <ele>275</ele>
        <time>2021-02-09T11:12:26Z</time>
      </trkpt>
      <trkpt lat="44.39754" lon="1.18459">
        <ele>274</ele>
        <time>2021-02-09T11:12:24Z</time>
      </trkpt>
      <trkpt lat="44.39748" lon="1.18479">
        <ele>271</ele>
        <time>2021-02-09T11:12:14Z</time>
      </trkpt>
      <trkpt lat="44.397" lon="1.18571">
        <ele>265</ele>
        <time>2021-02-09T11:11:44Z</time>
      </trkpt>
      <trkpt lat="44.39645" lon="1.18646">
        <ele>265</ele>
        <time>2021-02-09T11:11:18Z</time>
      </trkpt>
      <trkpt lat="44.39586" lon="1.18738">
        <ele>265</ele>
        <time>2021-02-09T11:10:47Z</time>
      </trkpt>
      <trkpt lat="44.39522" lon="1.1883">
        <ele>261</ele>
        <time>2021-02-09T11:10:17Z</time>
      </trkpt>
      <trkpt lat="44.39466" lon="1.18928">
        <ele>261</ele>
        <time>2021-02-09T11:09:47Z</time>
      </trkpt>
      <trkpt lat="44.39444" lon="1.18964">
        <ele>262</ele>
        <time>2021-02-09T11:09:36Z</time>
      </trkpt>
      <trkpt lat="44.3944" lon="1.18971">
        <ele>262</ele>
        <time>2021-02-09T11:09:33Z</time>
      </trkpt>
      <trkpt lat="44.39434" lon="1.1898">
        <ele>262</ele>
        <time>2021-02-09T11:09:27Z</time>
      </trkpt>
      <trkpt lat="44.39431" lon="1.18985">
        <ele>261</ele>
        <time>2021-02-09T11:09:23Z</time>
      </trkpt>
      <trkpt lat="44.39416" lon="1.19005">
        <ele>260</ele>
        <time>2021-02-09T11:09:06Z</time>
      </trkpt>
      <trkpt lat="44.39414" lon="1.19006">
        <ele>260</ele>
        <time>2021-02-09T11:09:02Z</time>
      </trkpt>
      <trkpt lat="44.39408" lon="1.19011">
        <ele>261</ele>
        <time>2021-02-09T11:08:56Z</time>
      </trkpt>
      <trkpt lat="44.39406" lon="1.19014">
        <ele>261</ele>
        <time>2021-02-09T11:08:54Z</time>
      </trkpt>
      <trkpt lat="44.39403" lon="1.19016">
        <ele>260</ele>
        <time>2021-02-09T11:08:52Z</time>
      </trkpt>
      <trkpt lat="44.39385" lon="1.19028">
        <ele>260</ele>
        <time>2021-02-09T11:08:36Z</time>
      </trkpt>
      <trkpt lat="44.39366" lon="1.19046">
        <ele>259</ele>
        <time>2021-02-09T11:08:18Z</time>
      </trkpt>
      <trkpt lat="44.3935" lon="1.19059">
        <ele>259</ele>
        <time>2021-02-09T11:08:05Z</time>
      </trkpt>
      <trkpt lat="44.39341" lon="1.19069">
        <ele>259</ele>
        <time>2021-02-09T11:07:56Z</time>
      </trkpt>
      <trkpt lat="44.39331" lon="1.19092">
        <ele>257</ele>
        <time>2021-02-09T11:07:42Z</time>
      </trkpt>
      <trkpt lat="44.39324" lon="1.19103">
        <ele>257</ele>
        <time>2021-02-09T11:07:34Z</time>
      </trkpt>
      <trkpt lat="44.39315" lon="1.19119">
        <ele>255</ele>
        <time>2021-02-09T11:07:23Z</time>
      </trkpt>
      <trkpt lat="44.39303" lon="1.19161">
        <ele>250</ele>
        <time>2021-02-09T11:06:59Z</time>
      </trkpt>
      <trkpt lat="44.39301" lon="1.19164">
        <ele>249</ele>
        <time>2021-02-09T11:06:56Z</time>
      </trkpt>
      <trkpt lat="44.39299" lon="1.19166">
        <ele>248</ele>
        <time>2021-02-09T11:06:54Z</time>
      </trkpt>
      <trkpt lat="44.39296" lon="1.19165">
        <ele>248</ele>
        <time>2021-02-09T11:06:51Z</time>
      </trkpt>
      <trkpt lat="44.39296" lon="1.19162">
        <ele>248</ele>
        <time>2021-02-09T11:06:49Z</time>
      </trkpt>
      <trkpt lat="44.39291" lon="1.19157">
        <ele>247</ele>
        <time>2021-02-09T11:06:44Z</time>
      </trkpt>
      <trkpt lat="44.39288" lon="1.19156">
        <ele>245</ele>
        <time>2021-02-09T11:06:40Z</time>
      </trkpt>
      <trkpt lat="44.3928" lon="1.19164">
        <ele>245</ele>
        <time>2021-02-09T11:06:31Z</time>
      </trkpt>
      <trkpt lat="44.39278" lon="1.19168">
        <ele>246</ele>
        <time>2021-02-09T11:06:28Z</time>
      </trkpt>
      <trkpt lat="44.39273" lon="1.19177">
        <ele>246</ele>
        <time>2021-02-09T11:06:22Z</time>
      </trkpt>
      <trkpt lat="44.39266" lon="1.19186">
        <ele>244</ele>
        <time>2021-02-09T11:06:13Z</time>
      </trkpt>
      <trkpt lat="44.39264" lon="1.1919">
        <ele>243</ele>
        <time>2021-02-09T11:06:10Z</time>
      </trkpt>
      <trkpt lat="44.39245" lon="1.19217">
        <ele>234</ele>
        <time>2021-02-09T11:05:50Z</time>
      </trkpt>
      <trkpt lat="44.3924" lon="1.19227">
        <ele>233</ele>
        <time>2021-02-09T11:05:44Z</time>
      </trkpt>
      <trkpt lat="44.39237" lon="1.1923">
        <ele>233</ele>
        <time>2021-02-09T11:05:40Z</time>
      </trkpt>
      <trkpt lat="44.39231" lon="1.19235">
        <ele>235</ele>
        <time>2021-02-09T11:05:34Z</time>
      </trkpt>
      <trkpt lat="44.39211" lon="1.1924">
        <ele>232</ele>
        <time>2021-02-09T11:05:20Z</time>
      </trkpt>
      <trkpt lat="44.39208" lon="1.19239">
        <ele>232</ele>
        <time>2021-02-09T11:05:18Z</time>
      </trkpt>
      <trkpt lat="44.39206" lon="1.19238">
        <ele>231</ele>
        <time>2021-02-09T11:05:16Z</time>
      </trkpt>
      <trkpt lat="44.39176" lon="1.19245">
        <ele>229</ele>
        <time>2021-02-09T11:04:56Z</time>
      </trkpt>
      <trkpt lat="44.39172" lon="1.19245">
        <ele>229</ele>
        <time>2021-02-09T11:04:53Z</time>
      </trkpt>
      <trkpt lat="44.39165" lon="1.19246">
        <ele>229</ele>
        <time>2021-02-09T11:04:48Z</time>
      </trkpt>
      <trkpt lat="44.39128" lon="1.19251">
        <ele>221</ele>
        <time>2021-02-09T11:04:27Z</time>
      </trkpt>
      <trkpt lat="44.39097" lon="1.19255">
        <ele>217</ele>
        <time>2021-02-09T11:04:21Z</time>
      </trkpt>
      <trkpt lat="44.38941" lon="1.1933">
        <ele>201</ele>
        <time>2021-02-09T11:03:56Z</time>
      </trkpt>
      <trkpt lat="44.38936" lon="1.19333">
        <ele>201</ele>
        <time>2021-02-09T11:03:55Z</time>
      </trkpt>
      <trkpt lat="44.38903" lon="1.19368">
        <ele>196</ele>
        <time>2021-02-09T11:03:46Z</time>
      </trkpt>
      <trkpt lat="44.3889" lon="1.19376">
        <ele>194</ele>
        <time>2021-02-09T11:03:43Z</time>
      </trkpt>
      <trkpt lat="44.38836" lon="1.19405">
        <ele>195</ele>
        <time>2021-02-09T11:03:32Z</time>
      </trkpt>
      <trkpt lat="44.38795" lon="1.19424">
        <ele>198</ele>
        <time>2021-02-09T11:03:23Z</time>
      </trkpt>
      <trkpt lat="44.38732" lon="1.1949">
        <ele>204</ele>
        <time>2021-02-09T11:03:02Z</time>
      </trkpt>
      <trkpt lat="44.38718" lon="1.19513">
        <ele>206</ele>
        <time>2021-02-09T11:02:56Z</time>
      </trkpt>
      <trkpt lat="44.38704" lon="1.19532">
        <ele>210</ele>
        <time>2021-02-09T11:02:50Z</time>
      </trkpt>
      <trkpt lat="44.38695" lon="1.19544">
        <ele>212</ele>
        <time>2021-02-09T11:02:45Z</time>
      </trkpt>
      <trkpt lat="44.38689" lon="1.19551">
        <ele>213</ele>
        <time>2021-02-09T11:02:41Z</time>
      </trkpt>
      <trkpt lat="44.38682" lon="1.1956">
        <ele>214</ele>
        <time>2021-02-09T11:02:36Z</time>
      </trkpt>
      <trkpt lat="44.38672" lon="1.19572">
        <ele>215</ele>
        <time>2021-02-09T11:02:30Z</time>
      </trkpt>
      <trkpt lat="44.3865" lon="1.19608">
        <ele>217</ele>
        <time>2021-02-09T11:02:18Z</time>
      </trkpt>
      <trkpt lat="44.38639" lon="1.19631">
        <ele>218</ele>
        <time>2021-02-09T11:02:07Z</time>
      </trkpt>
      <trkpt lat="44.38636" lon="1.19634">
        <ele>218</ele>
        <time>2021-02-09T11:02:03Z</time>
      </trkpt>
      <trkpt lat="44.38633" lon="1.19636">
        <ele>218</ele>
        <time>2021-02-09T11:02:00Z</time>
      </trkpt>
      <trkpt lat="44.38614" lon="1.19653">
        <ele>219</ele>
        <time>2021-02-09T11:01:49Z</time>
      </trkpt>
      <trkpt lat="44.38588" lon="1.19668">
        <ele>217</ele>
        <time>2021-02-09T11:01:41Z</time>
      </trkpt>
      <trkpt lat="44.38558" lon="1.19668">
        <ele>220</ele>
        <time>2021-02-09T11:01:27Z</time>
      </trkpt>
      <trkpt lat="44.38555" lon="1.19667">
        <ele>220</ele>
        <time>2021-02-09T11:01:25Z</time>
      </trkpt>
      <trkpt lat="44.38546" lon="1.19666">
        <ele>220</ele>
        <time>2021-02-09T11:01:18Z</time>
      </trkpt>
      <trkpt lat="44.38543" lon="1.19669">
        <ele>220</ele>
        <time>2021-02-09T11:01:16Z</time>
      </trkpt>
      <trkpt lat="44.38536" lon="1.19675">
        <ele>220</ele>
        <time>2021-02-09T11:01:13Z</time>
      </trkpt>
      <trkpt lat="44.38516" lon="1.19686">
        <ele>223</ele>
        <time>2021-02-09T11:01:06Z</time>
      </trkpt>
      <trkpt lat="44.3847" lon="1.19702">
        <ele>226</ele>
        <time>2021-02-09T11:00:52Z</time>
      </trkpt>
      <trkpt lat="44.38436" lon="1.19703">
        <ele>227</ele>
        <time>2021-02-09T11:00:43Z</time>
      </trkpt>
      <trkpt lat="44.38389" lon="1.19704">
        <ele>233</ele>
        <time>2021-02-09T11:00:27Z</time>
      </trkpt>
      <trkpt lat="44.38381" lon="1.19704">
        <ele>234</ele>
        <time>2021-02-09T11:00:23Z</time>
      </trkpt>
      <trkpt lat="44.38372" lon="1.19703">
        <ele>235</ele>
        <time>2021-02-09T11:00:17Z</time>
      </trkpt>
      <trkpt lat="44.38357" lon="1.19705">
        <ele>236</ele>
        <time>2021-02-09T11:00:06Z</time>
      </trkpt>
      <trkpt lat="44.38355" lon="1.19705">
        <ele>237</ele>
        <time>2021-02-09T11:00:03Z</time>
      </trkpt>
      <trkpt lat="44.38353" lon="1.19707">
        <ele>237</ele>
        <time>2021-02-09T10:59:21Z</time>
      </trkpt>
      <trkpt lat="44.38351" lon="1.19708">
        <ele>237</ele>
        <time>2021-02-09T10:59:18Z</time>
      </trkpt>
      <trkpt lat="44.38344" lon="1.1971">
        <ele>237</ele>
        <time>2021-02-09T10:59:13Z</time>
      </trkpt>
      <trkpt lat="44.38339" lon="1.19711">
        <ele>237</ele>
        <time>2021-02-09T10:59:09Z</time>
      </trkpt>
      <trkpt lat="44.38321" lon="1.19717">
        <ele>238</ele>
        <time>2021-02-09T10:58:55Z</time>
      </trkpt>
      <trkpt lat="44.38319" lon="1.19719">
        <ele>238</ele>
        <time>2021-02-09T10:58:53Z</time>
      </trkpt>
      <trkpt lat="44.38297" lon="1.19721">
        <ele>238</ele>
        <time>2021-02-09T10:58:36Z</time>
      </trkpt>
      <trkpt lat="44.38293" lon="1.1972">
        <ele>239</ele>
        <time>2021-02-09T10:58:33Z</time>
      </trkpt>
      <trkpt lat="44.38272" lon="1.19707">
        <ele>242</ele>
        <time>2021-02-09T10:58:14Z</time>
      </trkpt>
      <trkpt lat="44.38262" lon="1.19711">
        <ele>243</ele>
        <time>2021-02-09T10:58:07Z</time>
      </trkpt>
      <trkpt lat="44.38257" lon="1.19717">
        <ele>244</ele>
        <time>2021-02-09T10:58:02Z</time>
      </trkpt>
      <trkpt lat="44.38255" lon="1.19723">
        <ele>244</ele>
        <time>2021-02-09T10:57:59Z</time>
      </trkpt>
      <trkpt lat="44.38243" lon="1.1975">
        <ele>247</ele>
        <time>2021-02-09T10:57:42Z</time>
      </trkpt>
      <trkpt lat="44.38222" lon="1.19776">
        <ele>246</ele>
        <time>2021-02-09T10:57:23Z</time>
      </trkpt>
      <trkpt lat="44.38215" lon="1.19783">
        <ele>247</ele>
        <time>2021-02-09T10:57:17Z</time>
      </trkpt>
      <trkpt lat="44.38209" lon="1.19786">
        <ele>248</ele>
        <time>2021-02-09T10:57:13Z</time>
      </trkpt>
      <trkpt lat="44.38203" lon="1.19786">
        <ele>248</ele>
        <time>2021-02-09T10:57:09Z</time>
      </trkpt>
      <trkpt lat="44.382" lon="1.19785">
        <ele>248</ele>
        <time>2021-02-09T10:57:07Z</time>
      </trkpt>
      <trkpt lat="44.38194" lon="1.1978">
        <ele>250</ele>
        <time>2021-02-09T10:57:01Z</time>
      </trkpt>
      <trkpt lat="44.3819" lon="1.19769">
        <ele>250</ele>
        <time>2021-02-09T10:56:53Z</time>
      </trkpt>
      <trkpt lat="44.38189" lon="1.19753">
        <ele>252</ele>
        <time>2021-02-09T10:56:43Z</time>
      </trkpt>
      <trkpt lat="44.38188" lon="1.19747">
        <ele>252</ele>
        <time>2021-02-09T10:56:39Z</time>
      </trkpt>
      <trkpt lat="44.38187" lon="1.19736">
        <ele>250</ele>
        <time>2021-02-09T10:56:26Z</time>
      </trkpt>
      <trkpt lat="44.38186" lon="1.19731">
        <ele>250</ele>
        <time>2021-02-09T10:56:23Z</time>
      </trkpt>
      <trkpt lat="44.38186" lon="1.1972">
        <ele>250</ele>
        <time>2021-02-09T10:56:17Z</time>
      </trkpt>
      <trkpt lat="44.38178" lon="1.19689">
        <ele>252</ele>
        <time>2021-02-09T10:55:59Z</time>
      </trkpt>
      <trkpt lat="44.38163" lon="1.19653">
        <ele>256</ele>
        <time>2021-02-09T10:55:36Z</time>
      </trkpt>
      <trkpt lat="44.38159" lon="1.19646">
        <ele>257</ele>
        <time>2021-02-09T10:55:31Z</time>
      </trkpt>
      <trkpt lat="44.38147" lon="1.1964">
        <ele>256</ele>
        <time>2021-02-09T10:55:21Z</time>
      </trkpt>
      <trkpt lat="44.38135" lon="1.19636">
        <ele>256</ele>
        <time>2021-02-09T10:55:11Z</time>
      </trkpt>
      <trkpt lat="44.38132" lon="1.19636">
        <ele>258</ele>
        <time>2021-02-09T10:55:03Z</time>
      </trkpt>
      <trkpt lat="44.38119" lon="1.1963">
        <ele>259</ele>
        <time>2021-02-09T10:54:50Z</time>
      </trkpt>
      <trkpt lat="44.38098" lon="1.19626">
        <ele>259</ele>
        <time>2021-02-09T10:54:32Z</time>
      </trkpt>
      <trkpt lat="44.38086" lon="1.1963">
        <ele>260</ele>
        <time>2021-02-09T10:54:20Z</time>
      </trkpt>
      <trkpt lat="44.38083" lon="1.19629">
        <ele>260</ele>
        <time>2021-02-09T10:54:18Z</time>
      </trkpt>
      <trkpt lat="44.38079" lon="1.19628">
        <ele>261</ele>
        <time>2021-02-09T10:54:15Z</time>
      </trkpt>
      <trkpt lat="44.38075" lon="1.19629">
        <ele>261</ele>
        <time>2021-02-09T10:54:12Z</time>
      </trkpt>
      <trkpt lat="44.38062" lon="1.19637">
        <ele>259</ele>
        <time>2021-02-09T10:54:00Z</time>
      </trkpt>
      <trkpt lat="44.38056" lon="1.19639">
        <ele>260</ele>
        <time>2021-02-09T10:53:55Z</time>
      </trkpt>
      <trkpt lat="44.38052" lon="1.19643">
        <ele>260</ele>
        <time>2021-02-09T10:53:51Z</time>
      </trkpt>
      <trkpt lat="44.38052" lon="1.19647">
        <ele>260</ele>
        <time>2021-02-09T10:53:49Z</time>
      </trkpt>
      <trkpt lat="44.38053" lon="1.19661">
        <ele>259</ele>
        <time>2021-02-09T10:53:39Z</time>
      </trkpt>
      <trkpt lat="44.38054" lon="1.19664">
        <ele>259</ele>
        <time>2021-02-09T10:53:36Z</time>
      </trkpt>
      <trkpt lat="44.38055" lon="1.19667">
        <ele>260</ele>
        <time>2021-02-09T10:53:34Z</time>
      </trkpt>
      <trkpt lat="44.38054" lon="1.1967">
        <ele>260</ele>
        <time>2021-02-09T10:53:27Z</time>
      </trkpt>
      <trkpt lat="44.38055" lon="1.19674">
        <ele>260</ele>
        <time>2021-02-09T10:53:25Z</time>
      </trkpt>
      <trkpt lat="44.38055" lon="1.19678">
        <ele>260</ele>
        <time>2021-02-09T10:53:23Z</time>
      </trkpt>
      <trkpt lat="44.38056" lon="1.19707">
        <ele>258</ele>
        <time>2021-02-09T10:53:09Z</time>
      </trkpt>
      <trkpt lat="44.38063" lon="1.19731">
        <ele>259</ele>
        <time>2021-02-09T10:52:54Z</time>
      </trkpt>
      <trkpt lat="44.38067" lon="1.19737">
        <ele>260</ele>
        <time>2021-02-09T10:52:50Z</time>
      </trkpt>
      <trkpt lat="44.38069" lon="1.19739">
        <ele>260</ele>
        <time>2021-02-09T10:52:48Z</time>
      </trkpt>
      <trkpt lat="44.38072" lon="1.19739">
        <ele>260</ele>
        <time>2021-02-09T10:52:46Z</time>
      </trkpt>
      <trkpt lat="44.38074" lon="1.19741">
        <ele>260</ele>
        <time>2021-02-09T10:52:43Z</time>
      </trkpt>
      <trkpt lat="44.38072" lon="1.19745">
        <ele>260</ele>
        <time>2021-02-09T10:52:32Z</time>
      </trkpt>
      <trkpt lat="44.38074" lon="1.19748">
        <ele>260</ele>
        <time>2021-02-09T10:52:29Z</time>
      </trkpt>
      <trkpt lat="44.38074" lon="1.19752">
        <ele>260</ele>
        <time>2021-02-09T10:52:25Z</time>
      </trkpt>
      <trkpt lat="44.38074" lon="1.19758">
        <ele>260</ele>
        <time>2021-02-09T10:52:22Z</time>
      </trkpt>
      <trkpt lat="44.38072" lon="1.19766">
        <ele>259</ele>
        <time>2021-02-09T10:52:18Z</time>
      </trkpt>
      <trkpt lat="44.3807" lon="1.19768">
        <ele>259</ele>
        <time>2021-02-09T10:52:16Z</time>
      </trkpt>
      <trkpt lat="44.38069" lon="1.19772">
        <ele>259</ele>
        <time>2021-02-09T10:52:14Z</time>
      </trkpt>
      <trkpt lat="44.38068" lon="1.19776">
        <ele>258</ele>
        <time>2021-02-09T10:52:12Z</time>
      </trkpt>
      <trkpt lat="44.38067" lon="1.19779">
        <ele>258</ele>
        <time>2021-02-09T10:52:10Z</time>
      </trkpt>
      <trkpt lat="44.38065" lon="1.19781">
        <ele>257</ele>
        <time>2021-02-09T10:52:08Z</time>
      </trkpt>
      <trkpt lat="44.38061" lon="1.19794">
        <ele>257</ele>
        <time>2021-02-09T10:52:00Z</time>
      </trkpt>
      <trkpt lat="44.38057" lon="1.19812">
        <ele>256</ele>
        <time>2021-02-09T10:51:48Z</time>
      </trkpt>
      <trkpt lat="44.38056" lon="1.19815">
        <ele>256</ele>
        <time>2021-02-09T10:51:45Z</time>
      </trkpt>
      <trkpt lat="44.38044" lon="1.19865">
        <ele>255</ele>
        <time>2021-02-09T10:51:15Z</time>
      </trkpt>
      <trkpt lat="44.3803" lon="1.19917">
        <ele>252</ele>
        <time>2021-02-09T10:50:45Z</time>
      </trkpt>
      <trkpt lat="44.38028" lon="1.19941">
        <ele>252</ele>
        <time>2021-02-09T10:50:33Z</time>
      </trkpt>
      <trkpt lat="44.38027" lon="1.19944">
        <ele>252</ele>
        <time>2021-02-09T10:50:31Z</time>
      </trkpt>
      <trkpt lat="44.38027" lon="1.19947">
        <ele>252</ele>
        <time>2021-02-09T10:50:29Z</time>
      </trkpt>
      <trkpt lat="44.38025" lon="1.1996">
        <ele>249</ele>
        <time>2021-02-09T10:50:20Z</time>
      </trkpt>
      <trkpt lat="44.38023" lon="1.19967">
        <ele>247</ele>
        <time>2021-02-09T10:50:16Z</time>
      </trkpt>
      <trkpt lat="44.38019" lon="1.19975">
        <ele>242</ele>
        <time>2021-02-09T10:50:05Z</time>
      </trkpt>
      <trkpt lat="44.38015" lon="1.19978">
        <ele>240</ele>
        <time>2021-02-09T10:50:03Z</time>
      </trkpt>
      <trkpt lat="44.38011" lon="1.19982">
        <ele>240</ele>
        <time>2021-02-09T10:50:01Z</time>
      </trkpt>
      <trkpt lat="44.38002" lon="1.19995">
        <ele>239</ele>
        <time>2021-02-09T10:49:57Z</time>
      </trkpt>
      <trkpt lat="44.37985" lon="1.20014">
        <ele>238</ele>
        <time>2021-02-09T10:49:49Z</time>
      </trkpt>
      <trkpt lat="44.37982" lon="1.20019">
        <ele>237</ele>
        <time>2021-02-09T10:49:47Z</time>
      </trkpt>
      <trkpt lat="44.3798" lon="1.20027">
        <ele>237</ele>
        <time>2021-02-09T10:49:45Z</time>
      </trkpt>
      <trkpt lat="44.37972" lon="1.20089">
        <ele>237</ele>
        <time>2021-02-09T10:49:29Z</time>
      </trkpt>
      <trkpt lat="44.37965" lon="1.20101">
        <ele>236</ele>
        <time>2021-02-09T10:49:21Z</time>
      </trkpt>
      <trkpt lat="44.37916" lon="1.20163">
        <ele>235</ele>
        <time>2021-02-09T10:48:57Z</time>
      </trkpt>
      <trkpt lat="44.37847" lon="1.20267">
        <ele>237</ele>
        <time>2021-02-09T10:48:35Z</time>
      </trkpt>
      <trkpt lat="44.37832" lon="1.20299">
        <ele>238</ele>
        <time>2021-02-09T10:48:26Z</time>
      </trkpt>
      <trkpt lat="44.37826" lon="1.20308">
        <ele>239</ele>
        <time>2021-02-09T10:48:23Z</time>
      </trkpt>
      <trkpt lat="44.37815" lon="1.20329">
        <ele>239</ele>
        <time>2021-02-09T10:48:17Z</time>
      </trkpt>
      <trkpt lat="44.37772" lon="1.20383">
        <ele>245</ele>
        <time>2021-02-09T10:47:59Z</time>
      </trkpt>
      <trkpt lat="44.37746" lon="1.2043">
        <ele>249</ele>
        <time>2021-02-09T10:47:43Z</time>
      </trkpt>
      <trkpt lat="44.37724" lon="1.2047">
        <ele>252</ele>
        <time>2021-02-09T10:47:31Z</time>
      </trkpt>
      <trkpt lat="44.37714" lon="1.20491">
        <ele>255</ele>
        <time>2021-02-09T10:47:22Z</time>
      </trkpt>
      <trkpt lat="44.37711" lon="1.20494">
        <ele>255</ele>
        <time>2021-02-09T10:47:19Z</time>
      </trkpt>
      <trkpt lat="44.37706" lon="1.20494">
        <ele>256</ele>
        <time>2021-02-09T10:47:15Z</time>
      </trkpt>
      <trkpt lat="44.37706" lon="1.20494">
        <ele>256</ele>
        <time>2021-02-09T10:47:15Z</time>
      </trkpt>
    </trkseg>
  </trk>
</gpx>